Weather History for Key West, FL

Change the Weather History Date:

Sunday, March 10, 2013

  Actual Average Record
Temperature  
Mean Temperature 73 °F 73 °F  
Max Temperature 78 °F 78 °F 86 °F (1948)
Min Temperature 67 °F 68 °F 54 °F (1941)
Degree Days  
Heating Degree Days 0 0  
Month to date heating degree days 11 0  
Since 1 July heating degree days 23 66  
Cooling Degree Days 8 8  
Month to date cooling degree days 24 79  
Year to date cooling degree days 558 427  
Growing Degree Days 22 (Base 50)    
Moisture  
Dew Point 58 °F    
Average Humidity 64    
Maximum Humidity 78    
Minimum Humidity 50    
Precipitation  
Precipitation 0.00 in 0.07 in 0.88 in (1947)
Month to date precipitation 0.17 0.73  
Year to date precipitation 1.71 4.26  
Snow  
Snow 0.00 in - - ()
Month to date snowfall 0.0  
Since 1 July snowfall 0.0  
Snow Depth 0.00 in    
Sea Level Pressure  
Sea Level Pressure 30.08 in    
Wind  
Wind Speed 13 mph (East)    
Max Wind Speed 20 mph    
Max Gust Speed 30 mph    
Visibility 10 miles    
Events      
T = Trace of Precipitation, MM = Missing Value Source: NWS Daily Summary

Daily Weather History Graph

Daily Weather History Graph

Search for Another Location

Airport:

Trip Planner

Search our weather history database for the weather conditions in past years. The results will help you decide how hot, cold, wet, or windy it might be!

Date:

Astronomy

Mar. 10, 2013 Rise Set
Actual Time 7:40 AM EDT 7:33 PM EDT
Civil Twilight 7:18 AM EDT 7:56 PM EDT
Nautical Twilight 6:51 AM EDT 8:23 PM EDT
Astronomical Twilight 6:25 AM EDT 8:49 PM EDT
Moon 6:35 AM EDT (3/10) 6:41 PM EDT (3/10)
Length of Visible Light 12h 38m
Length of Day
11h 53m
Waning Crescent, 2% of the Moon is Illuminated
Mar 10
Waning Crescent
Mar 11
New
Mar 19
First Quarter
Mar 27
Full
Apr 3
Last Quarter

Hourly Weather History & Observations

Time (EDT) Temp. Dew Point Humidity Pressure Visibility Wind Dir Wind Speed Gust Speed Precip Events Conditions
12:53 AM 68.0 °F 57.9 °F 70% 30.13 in 10.0 mi ENE 8.1 mph - N/A   Clear
1:53 AM 66.9 °F 57.9 °F 73% 30.09 in 10.0 mi ENE 6.9 mph - N/A   Clear
3:53 AM 69.1 °F 55.9 °F 63% 30.08 in 10.0 mi ENE 6.9 mph - N/A   Partly Cloudy
4:53 AM 66.2 °F 59.0 °F 78% 30.08 in 10.0 mi NE 6.9 mph - N/A   Clear
5:53 AM 66.9 °F 59.0 °F 76% 30.07 in 10.0 mi ENE 6.9 mph - N/A   Clear
6:53 AM 66.9 °F 59.0 °F 76% 30.07 in 10.0 mi ENE 8.1 mph - N/A   Partly Cloudy
7:53 AM 69.1 °F 55.9 °F 63% 30.09 in 10.0 mi East 11.5 mph 20.7 mph N/A   Clear
8:53 AM 70.0 °F 55.9 °F 61% 30.09 in 10.0 mi East 15.0 mph 20.7 mph N/A   Partly Cloudy
9:53 AM 73.0 °F 57.0 °F 57% 30.10 in 10.0 mi East 16.1 mph 21.9 mph N/A   Partly Cloudy
10:53 AM 73.0 °F 57.0 °F 57% 30.11 in 10.0 mi East 13.8 mph 21.9 mph N/A   Mostly Cloudy
11:53 AM 73.9 °F 55.9 °F 53% 30.12 in 10.0 mi East 16.1 mph - N/A   Clear
12:53 PM 73.9 °F 57.9 °F 57% 30.12 in 10.0 mi East 16.1 mph - N/A   Mostly Cloudy
1:53 PM 77.0 °F 57.9 °F 52% 30.09 in 10.0 mi ESE 16.1 mph 21.9 mph N/A   Partly Cloudy
2:53 PM 75.9 °F 57.9 °F 54% 30.08 in 10.0 mi East 13.8 mph - N/A   Clear
3:53 PM 75.9 °F 59.0 °F 56% 30.06 in 10.0 mi East 16.1 mph 24.2 mph N/A   Clear
4:53 PM 75.9 °F 57.9 °F 54% 30.04 in 10.0 mi ESE 20.7 mph 26.5 mph N/A   Clear
5:53 PM 73.9 °F 59.0 °F 59% 30.04 in 10.0 mi ESE 17.3 mph 23.0 mph N/A   Mostly Cloudy
6:53 PM 73.0 °F 59.0 °F 61% 30.04 in 10.0 mi ESE 13.8 mph - N/A   Scattered Clouds
7:53 PM 72.0 °F 59.0 °F 64% 30.05 in 10.0 mi East 17.3 mph - N/A   Scattered Clouds
8:53 PM 72.0 °F 59.0 °F 64% 30.06 in 10.0 mi East 15.0 mph - N/A   Clear
9:53 PM 71.6 °F 60.8 °F 69% 30.08 in 10.0 mi East 13.8 mph - N/A   Scattered Clouds
10:53 PM 72.0 °F 59.0 °F 64% 30.09 in 10.0 mi ESE 15.0 mph - N/A   Partly Cloudy
11:53 PM 72.0 °F 60.1 °F 66% 30.08 in 10.0 mi East 13.8 mph - N/A   Clear
12:53 AM 72.0 °F 60.1 °F 66% 30.07 in 10.0 mi ESE 13.8 mph - N/A   Mostly Cloudy